CZ-6A DEB, 61401

Orbit data source: Space-Track

CZ-6A DEB, 61401 is space debris in LEO originally from a launch on Tue, 06 Aug 2024 UTC launched from the Taiyaun Space Center, China (TSC). Debris objects in space refer to the collection of defunct objects orbiting the Earth. Examples of debris include non-operational satellites, rocket bodies, and fragments generated from explosions, collisions, or faulty payload assembly.

Loading next visibility...
Identifier
61401, 2024-140XS
Orbit
LEO
Country
Flag of CNCN / PRC
Related business
Manufacturer
SAST
Mission
Spacecraft
Bus & Motor
Unknown
Mass
Unknown
Launch date (UTC)
2024-08-06 (2 years ago)
Launch vehicle
Unknown
Launch site
Taiyaun Space Center, China (TSC)
Object type
Payload
Rocket body
Debris
Shape & HBR
Unknown shape, 0.1 m
Radar Cross Section
Small (<0.1 m²)

Expand to show TLE details & history
Last TLE update: 1 day ago

TLE from 1 day ago
0 CZ-6A DEB
1 61401U 24140XS  26129.39495757  .00002862  00000-0  12004-2 0  9999
2 61401  88.9980 278.8587 0046872 317.5274  42.2295 14.25147233 86298
Epoch: 2026-05-09T09:28Z
TLE epoch observation values (Epoch: 2026-05-09T09:28:44.334Z)
Latitude
-0.00003°
Longitude
-90.53904°
Altitude
786.184 km
Speed
7.474 km/s
True Right ascension
18h 35m 26s
True Declination
0° 00' 00"
Sunlit
Object was in full shadow at epoch
Visualization orbit readout
Latitude
Unknown
Longitude
Unknown
Altitude
Unknown
Speed
Unknown
Apparent Right ascension
Unknown
Apparent Declination
Unknown
Sunlit
N/A
Visualization observer readout
Local Sidereal Time
19:52:41
Azimuth
Unknown
Elevation
Unknown
Doppler factor
Unknown
Orbital elements
Apogee altitude
838.61 km
Perigee altitude
771.273 km
Semi-major axis
7,183.078 km
Eccentricity
0.00469
Inclination
88.998°
RAAN
278.8587°
Arg. of periapsis
317.5274°
True anomaly
42.59207°
Mean anomaly
42.2295°
Eccentric anomaly
42.41063°
Mean motion
3.56515 °/min
Orbital period
100.98 mins
BSTAR
0.0012004
Loading maneuver chart data...
Computing Atmospheric mass density...
Loading historical data...
Loading historical data...
Loading historical data...
Loading historical data...
Loading historical data...
Loading historical data...
Loading historical data...

Documentation

Showing up to 5 results
|